Weather reports worldwide

Advertisment
Deuselbach, Germany (10615): temperature & dewpoint: 20.09.2018 17:00:00 - 26.09.2018 17:00:00 (CEST)Deuselbach, Germany (10615): temperature 5cm & temperature -5cm: 20.09.2018 17:00:00 - 26.09.2018 17:00:00 (CEST)Deuselbach, Germany (10615): temperature -20cm & temperature -100cm: 20.09.2018 17:00:00 - 26.09.2018 17:00:00 (CEST)Deuselbach, Germany (10615): wind speed & gusts: 20.09.2018 17:00:00 - 26.09.2018 17:00:00 (CEST)Deuselbach, Germany (10615): wind direction: 20.09.2018 17:00:00 - 26.09.2018 17:00:00 (CEST)Deuselbach, Germany (10615): reduced air pressure: 20.09.2018 17:00:00 - 26.09.2018 17:00:00 (CEST)Deuselbach, Germany (10615): visibility: 20.09.2018 17:00:00 - 26.09.2018 17:00:00 (CEST)Deuselbach, Germany (10615): sunshine duration: 20.09.2018 17:00:00 - 26.09.2018 17:00:00 (CEST)Deuselbach, Germany (10615): precipitation: 20.09.2018 17:00:00 - 26.09.2018 17:00:00 (CEST)
Date & Time tt [°C] td [°C] tt 5cm [°C] tt -5cm [°C] tt -20cm [°C] tt -100cm [°C] ff [km/h] ff [kn] fx [km/h] fx [kn] dd ppp [hPa] vv [km] sd [min] rr [mm]
26.09.2018 17:00:00 - - - - - - - - - - - - - - -
26.09.2018 16:00:00 - - - - - - - - - - - - - - -
26.09.2018 15:00:00 - - - - - - - - - - - - - - -
26.09.2018 14:00:00 - - - - - - - - - - - - - - -
26.09.2018 13:00:00 - - - - - - - - - - - - - - -
26.09.2018 12:00:00 - - - - - - - - - - - - - - -
26.09.2018 11:00:00 - - - - - - - - - - - - - - -
26.09.2018 10:00:00 - - - - - - - - - - - - - - -
26.09.2018 09:00:00 - - - - - - - - - - - - - - -
26.09.2018 08:00:00 - - - - - - - - - - - - - - -
26.09.2018 07:00:00 - - - - - - - - - - - - - - -
26.09.2018 06:00:00 - - - - - - - - - - - - - - -
26.09.2018 05:00:00 - - - - - - - - - - - - - - -
26.09.2018 04:00:00 - - - - - - - - - - - - - - -
26.09.2018 03:00:00 - - - - - - - - - - - - - - -
26.09.2018 02:00:00 - - - - - - - - - - - - - - -
26.09.2018 01:00:00 - - - - - - - - - - - - - - -
26.09.2018 00:00:00 - - - - - - - - - - - - - - -
25.09.2018 23:00:00 - - - - - - - - - - - - - - -
25.09.2018 22:00:00 - - - - - - - - - - - - - - -
25.09.2018 21:00:00 - - - - - - - - - - - - - - -
25.09.2018 20:00:00 - - - - - - - - - - - - - - -
25.09.2018 19:00:00 - - - - - - - - - - - - - - -
25.09.2018 18:00:00 - - - - - - - - - - - - - - -
25.09.2018 17:00:00 - - - - - - - - - - - - - - -
25.09.2018 16:00:00 - - - - - - - - - - - - - - -
25.09.2018 15:00:00 - - - - - - - - - - - - - - -
25.09.2018 14:00:00 - - - - - - - - - - - - - - -
25.09.2018 13:00:00 - - - - - - - - - - - - - - -
25.09.2018 12:00:00 - - - - - - - - - - - - - - -
25.09.2018 11:00:00 - - - - - - - - - - - - - - -
25.09.2018 10:00:00 - - - - - - - - - - - - - - -
25.09.2018 09:00:00 - - - - - - - - - - - - - - -
25.09.2018 08:00:00 - - - - - - - - - - - - - - -
25.09.2018 07:00:00 - - - - - - - - - - - - - - -
25.09.2018 06:00:00 - - - - - - - - - - - - - - -
25.09.2018 05:00:00 - - - - - - - - - - - - - - -
25.09.2018 04:00:00 - - - - - - - - - - - - - - -
25.09.2018 03:00:00 - - - - - - - - - - - - - - -
25.09.2018 02:00:00 - - - - - - - - - - - - - - -
25.09.2018 01:00:00 - - - - - - - - - - - - - - -
25.09.2018 00:00:00 - - - - - - - - - - - - - - -
24.09.2018 23:00:00 - - - - - - - - - - - - - - -
24.09.2018 22:00:00 - - - - - - - - - - - - - - -
24.09.2018 21:00:00 - - - - - - - - - - - - - - -
24.09.2018 20:00:00 - - - - - - - - - - - - - - -
24.09.2018 19:00:00 - - - - - - - - - - - - - - -
24.09.2018 18:00:00 - - - - - - - - - - - - - - -
24.09.2018 17:00:00 - - - - - - - - - - - - - - -
24.09.2018 16:00:00 - - - - - - - - - - - - - - -
24.09.2018 15:00:00 - - - - - - - - - - - - - - -
24.09.2018 14:00:00 - - - - - - - - - - - - - - -
24.09.2018 13:00:00 - - - - - - - - - - - - - - -
24.09.2018 12:00:00 - - - - - - - - - - - - - - -
24.09.2018 11:00:00 - - - - - - - - - - - - - - -
24.09.2018 10:00:00 - - - - - - - - - - - - - - -
24.09.2018 09:00:00 - - - - - - - - - - - - - - -
24.09.2018 08:00:00 - - - - - - - - - - - - - - -
24.09.2018 07:00:00 - - - - - - - - - - - - - - -
24.09.2018 06:00:00 - - - - - - - - - - - - - - -
24.09.2018 05:00:00 - - - - - - - - - - - - - - -
24.09.2018 04:00:00 - - - - - - - - - - - - - - -
24.09.2018 03:00:00 - - - - - - - - - - - - - - -
24.09.2018 02:00:00 - - - - - - - - - - - - - - -
24.09.2018 01:00:00 - - - - - - - - - - - - - - -
24.09.2018 00:00:00 - - - - - - - - - - - - - - -
23.09.2018 23:00:00 - - - - - - - - - - - - - - -
23.09.2018 22:00:00 - - - - - - - - - - - - - - -
23.09.2018 21:00:00 - - - - - - - - - - - - - - -
23.09.2018 20:00:00 - - - - - - - - - - - - - - -
23.09.2018 19:00:00 - - - - - - - - - - - - - - -
23.09.2018 18:00:00 - - - - - - - - - - - - - - -
23.09.2018 17:00:00 - - - - - - - - - - - - - - -
23.09.2018 16:00:00 17,8 16,9 17,3 17,3 15,4 15,9 42 23 68 37 SW 1003,6 19 0 1,5
23.09.2018 15:00:00 18,6 16,8 18,3 17,5 15,1 15,9 40 22 72 39 SW 1004,6 59 4 0,1
23.09.2018 14:00:00 18,4 17,1 18,4 16,9 14,8 15,9 32 17 62 34 SW 1006,7 6 0 0,3
23.09.2018 13:00:00 18,1 16,8 17,9 16,4 14,5 16,0 29 16 49 27 SW 1008,3 18 0 0,2
23.09.2018 12:00:00 17,4 16,7 17,2 15,7 14,2 16,0 26 14 47 25 SW 1009,3 6 0 0,3
23.09.2018 11:00:00 16,9 16,2 16,8 15,2 14,0 16,0 27 15 47 26 SW 1010,2 7 0 0,1
23.09.2018 10:00:00 16,6 15,8 16,5 14,4 13,7 16,0 27 14 51 28 SW 1010,4 30 0 0,1
23.09.2018 09:00:00 16,0 15,3 15,6 13,7 13,6 16,0 27 15 45 24 SW 1010,6 9 0 0,0
23.09.2018 08:00:00 15,0 14,4 14,6 13,0 13,5 16,0 25 13 50 27 SW 1011,2 4,1 0 0,2
23.09.2018 07:00:00 14,3 13,4 13,8 12,5 13,4 16,1 31 17 58 31 SW 1011,5 14 0 0,0
23.09.2018 06:00:00 13,5 12,5 12,8 11,9 13,4 16,1 34 18 66 36 SW 1012,3 9 0 0,1
23.09.2018 05:00:00 12,3 11,2 11,6 11,5 13,5 16,1 21 11 43 23 SW 1013,3 6 0 1,5
23.09.2018 04:00:00 10,4 9,5 10,0 11,3 13,6 16,1 17 9 33 18 SSW 1014,9 3,4 0 1,9
23.09.2018 03:00:00 9,8 8,9 9,4 11,4 13,7 16,1 12 7 29 15 S 1016,6 9 0 1,7
23.09.2018 02:00:00 9,5 9,0 9,4 11,5 13,8 16,1 6 3 21 11 SE 1017,7 7 0 1,3
23.09.2018 01:00:00 9,3 8,0 8,9 11,6 13,9 16,2 10 6 21 11 SSW 1018,9 6 0 0,0
23.09.2018 00:00:00 9,0 7,8 8,7 11,7 14,0 16,2 6 3 15 8 S 1019,4 47 0 0,4
22.09.2018 23:00:00 9,5 7,6 8,8 12,0 14,2 16,2 7 4 22 12 SW 1020,1 29 0 0,1
22.09.2018 22:00:00 10,5 6,8 9,2 12,3 14,3 16,2 16 9 33 18 WSW 1020,4 48 0 0,1
22.09.2018 21:00:00 10,1 7,5 9,1 12,5 14,5 16,2 5 3 11 6 SSW 1020,2 40 0 0,1
22.09.2018 20:00:00 9,9 7,7 9,1 13,0 14,6 16,3 6 3 10 5 SSW 1020,5 40 0 0,3
22.09.2018 19:00:00 11,4 6,7 9,9 13,4 14,6 16,3 8 4 18 10 SW 1020,6 31 0 0,1
22.09.2018 18:00:00 12,5 6,6 12,5 13,8 14,6 16,3 11 6 24 13 W 1020,3 58 0 0,0
22.09.2018 17:00:00 13,3 5,2 13,2 14,2 14,5 16,3 20 11 34 18 W 1020,6 68 0 0,0
22.09.2018 16:00:00 13,6 5,2 13,8 15,1 14,3 16,3 25 13 40 22 W 1021,4 50 12 0,0
22.09.2018 15:00:00 15,0 5,9 18,1 14,9 14,0 16,3 21 12 40 22 WSW 1020,9 59 7 0,0
22.09.2018 14:00:00 14,5 5,9 16,5 14,9 13,6 16,3 26 14 42 23 W 1021,3 49 20 0,0
22.09.2018 13:00:00 13,9 5,3 17,3 14,2 13,2 16,3 22 12 35 19 WSW 1021,8 40 38 0,0
22.09.2018 12:00:00 12,0 7,1 13,4 12,5 13,0 16,4 16 9 25 13 WSW 1022,6 48 8 0,0
22.09.2018 11:00:00 11,0 6,9 12,6 11,5 12,9 16,4 11 6 26 14 SW 1023,5 51 39 0,0
22.09.2018 10:00:00 9,4 5,7 9,9 10,1 12,9 16,4 17 9 29 16 WSW 1023,5 33 1 0,0
22.09.2018 09:00:00 8,7 5,4 8,6 9,4 13,0 16,4 16 9 28 15 SW 1023,3 36 6 0,0
22.09.2018 08:00:00 7,9 5,0 7,3 9,2 13,2 16,4 15 8 23 12 SW 1023,5 42 0 0,0
22.09.2018 07:00:00 7,9 5,0 7,0 9,2 13,4 16,4 16 9 24 13 SW 1022,7 36 0 0,0
22.09.2018 06:00:00 8,1 4,9 7,1 9,3 13,6 16,4 14 8 29 16 WSW 1022,5 41 0 0,0
22.09.2018 05:00:00 8,8 5,0 7,7 9,4 13,9 16,4 21 11 36 19 WSW 1022,5 44 0 0,0
22.09.2018 04:00:00 8,9 4,4 7,8 9,6 14,1 16,4 28 15 42 23 WSW 1021,8 51 0 0,0
22.09.2018 03:00:00 9,1 3,9 7,9 9,8 14,5 16,4 24 13 32 18 WSW 1021,9 54 0 0,0
22.09.2018 02:00:00 9,3 3,7 7,8 10,1 14,8 16,4 18 10 29 16 WSW 1021,3 53 0 0,0
22.09.2018 01:00:00 9,5 3,4 7,9 10,5 15,2 16,4 18 10 35 19 WSW 1021,1 58 0 0,0
22.09.2018 00:00:00 9,9 3,9 8,4 11,0 15,5 16,4 22 12 35 19 W 1020,7 63 0 0,0
21.09.2018 23:00:00 10,7 3,8 9,5 11,4 15,9 16,4 19 11 33 18 WSW 1019,9 75 0 0,0
21.09.2018 22:00:00 10,2 3,4 8,8 11,9 16,4 16,4 17 9 26 14 WSW 1019,2 61 0 0,0
21.09.2018 21:00:00 10,1 3,6 7,9 12,8 16,8 16,4 14 8 22 12 SW 1018,2 67 0 0,0
21.09.2018 20:00:00 11,5 5,0 9,9 13,9 17,1 16,4 11 6 33 18 WSW 1016,6 65 0 0,0
21.09.2018 19:00:00 12,5 4,6 12,0 14,9 17,4 16,4 22 12 49 26 WNW 1015,2 64 17 0,0
21.09.2018 18:00:00 13,6 5,9 13,7 16,1 17,5 16,4 28 15 43 23 W 1013,9 65 29 0,0
21.09.2018 17:00:00 13,0 10,8 14,1 16,1 17,7 16,3 25 13 40 21 W 1013,2 37 7 0,0
21.09.2018 16:00:00 11,6 10,0 12,1 16,0 18,0 16,3 23 12 33 18 WSW 1012,9 27 0 0,0
21.09.2018 15:00:00 10,6 9,8 11,0 16,7 18,2 16,3 13 7 70 38 SW 1012,7 19 0 3,3
21.09.2018 14:00:00 13,8 12,9 13,8 18,5 18,2 16,3 56 30 72 39 W 1010,3 4,2 0 3,0
21.09.2018 13:00:00 17,3 12,9 17,6 19,2 18,1 16,3 34 18 55 30 WSW 1008,8 62 0 0,0
21.09.2018 12:00:00 18,4 11,8 19,0 19,8 17,9 16,3 36 19 57 31 WSW 1008,7 32 29 0,0
21.09.2018 11:00:00 18,5 11,5 19,0 18,3 17,8 16,3 24 13 48 26 SW 1009,0 65 8 0,0
21.09.2018 10:00:00 18,5 11,2 18,8 17,8 17,8 16,3 21 12 41 22 SSW 1008,3 59 11 0,0
21.09.2018 09:00:00 18,3 12,5 18,2 17,1 17,9 16,3 22 12 40 22 SW 1009,0 42 5 0,0
21.09.2018 08:00:00 18,3 11,6 17,8 17,1 18,0 16,3 21 11 37 20 WSW 1009,0 54 3 0,0
21.09.2018 07:00:00 19,2 11,5 17,9 17,3 18,2 16,3 25 13 44 24 SSW 1008,4 44 0 0,0
21.09.2018 06:00:00 20,0 11,4 19,0 17,3 18,3 16,3 23 12 44 24 SW 1008,9 54 0 0,0
21.09.2018 05:00:00 20,1 10,9 18,9 17,3 18,4 16,3 18 10 36 19 SSW 1009,4 58 0 0,0
21.09.2018 04:00:00 19,8 11,5 18,2 17,5 18,6 16,2 13 7 27 15 SSW 1010,3 61 0 0,0
21.09.2018 03:00:00 19,3 11,9 17,2 17,8 18,8 16,2 11 6 39 21 SW 1011,2 47 0 0,0
21.09.2018 02:00:00 20,6 12,7 19,3 18,0 19,0 16,2 26 14 45 24 SSW 1011,3 53 0 0,0
21.09.2018 01:00:00 20,6 13,3 19,2 18,1 19,2 16,2 20 11 36 19 S 1011,7 49 0 0,0
21.09.2018 00:00:00 20,6 13,2 19,0 18,3 19,5 16,2 17 9 31 17 S 1012,4 49 0 0,0
20.09.2018 23:00:00 20,0 12,6 18,3 18,6 19,8 16,2 15 8 24 13 SSW 1013,3 51 0 0,0
20.09.2018 22:00:00 19,1 12,1 16,7 19,2 20,1 16,2 10 6 16 9 SSW 1014,0 41 0 0,0
20.09.2018 21:00:00 18,5 11,2 14,8 20,2 20,4 16,2 7 4 11 6 SSW 1014,7 54 0 0,0
20.09.2018 20:00:00 19,2 10,8 16,0 21,7 20,6 16,2 8 5 19 10 S 1015,0 54 10 0,0
20.09.2018 19:00:00 22,0 10,7 20,4 23,3 20,6 16,2 12 6 24 13 SW 1014,9 56 60 0,0
20.09.2018 18:00:00 23,1 10,9 23,4 24,6 20,4 16,2 14 7 33 18 SW 1015,2 58 60 0,0
20.09.2018 17:00:00 23,7 10,2 25,2 25,4 19,9 16,2 16 8 31 17 SSW 1015,8 58 60 0,0

tt = temperature
td = dewpoint
tt 5cm = temperature 5cm
tt -5cm = temperature -5cm
tt -20cm = temperature -20cm
tt -100cm = temperature -100cm
ff = wind speed
fx = gusts
dd = wind direction
ppp = reduced air pressure
vv = visibility
sd = sunshine duration
rr = precipitation

Next stations